Location: *
(53.3561°S, 172.0912°E)
Time: 04:59:34
(UTC+00:00)

Daily predictions for brighter satellites

Satellite Brightness Start Highest point End
(mag) Time Altitude Azimuth Time Altitude Azimuth Time Altitude Azimuth
IRS-1C 4.2 07:21:59 10° SSE 07:27:21 60° ENE 07:32:40 10° N
ATLAS 2AS CENTAUR R/B 4.0 07:24:12 10° NNE 07:28:50 19° ENE 07:33:32 10° ESE
YAOGAN 11 4.3 07:26:47 10° NE 07:30:57 52° ESE 07:35:14 10° S
Cosmos 1331 Rocket 4.1 07:26:02 10° N 07:31:06 56° ENE 07:36:13 10° SSE
Meteor 1-11 Rocket 3.8 07:25:51 10° S 07:31:33 61° ESE 07:37:05 10° NNE
Cosmos 1833 Rocket 3.1 07:27:25 10° N 07:32:40 41° ENE 07:37:59 10° SE
USA 229 DEB 4.2 07:25:52 10° SW 07:32:42 48° SSE 07:38:43 10° E
USA 229 4.2 07:25:57 10° SW 07:32:46 48° SSE 07:38:46 10° E
Cosmos 2056 Rocket 4.1 07:28:49 10° NW 07:34:06 64° WSW 07:39:22 10° SSE
Cosmos 2219 Rocket 4.3 07:32:33 10° SSW 07:35:42 15° SSE 07:38:51 10° SE
KORONAS-FOTON 3.5 07:33:26 10° N 07:36:52 81° ENE 07:40:23 10° SSE
Resurs 01 Rocket 2.6 07:34:25 10° SE 07:38:13 26° E 07:41:58 10° NNE
Meteor 2-20 4.5 07:36:25 10° N 07:42:34 82° E 07:48:46 10° SSE
Cosmos 2333 Rocket 3.9 07:38:32 10° SSW 07:42:56 21° SSE 07:47:20 10° ESE
Meteor 2-20 Rocket 4.3 07:39:23 10° N 07:45:05 63° E 07:50:49 10° SSE
Meteor 1-10 Rocket 4.5 07:40:52 10° N 07:46:39 56° E 07:52:32 10° SSE
PSLV R/B 4.2 07:43:59 10° SSE 07:47:44 30° E 07:51:24 10° NNE
SMAP 4.3 07:44:42 10° S 07:49:16 48° WSW 07:53:48 10° NW
Meteor 2-9 Rocket 4.5 07:45:06 10° SSW 07:50:36 75° W 07:56:11 10° N
Cosmos 1812 Rocket 3.5 07:46:14 10° N 07:50:39 70° E 07:55:08 10° SSE
YAOGAN 1 2.6 07:46:44 10° SSE 07:51:04 59° E 07:55:19 10° N
Cosmos 2082 Rocket 3.7 07:48:37 10° NE 07:51:31 14° E 07:54:26 10° ESE
Cosmos 1842 2.8 07:49:49 10° N 07:53:05 90° ENE 07:56:25 10° S
Cosmos 1697 Rocket 2.9 07:49:28 10° SSW 07:55:10 79° WNW 08:00:50 10° NNE
SJ-6B 3.7 07:54:02 10° SE 07:56:52 22° E 07:59:39 10° NE
Cosmos 1980 Rocket 2.3 07:52:21 10° SSW 07:58:01 61° SE 08:03:32 10° NE
SPOT 1/Viking Rocket 3.8 07:55:40 10° SSE 08:00:54 77° WSW 08:06:04 10° NNW
IRS-P3 4.1 07:56:41 10° SSE 08:02:08 80° ENE 08:07:31 10° NNW
SL-16 R/B 3.5 07:58:26 10° SSW 08:03:14 26° SE 08:07:25 12° E
SL-24 R/B 4.3 07:58:56 10° NNE 08:03:51 86° WNW 08:08:16 10° SSW
Cosmos 2084 Rocket 4.0 08:00:55 10° WNW 08:05:08 58° SW 08:09:19 10° SE
USA 59 Rocket 4.4 08:01:22 10° WSW 08:05:29 14° W 08:09:16 10° WNW
Cosmos 1470 3.4 08:03:35 10° SSW 08:06:56 48° W 08:10:13 10° N
CZ-4 R/B 3.3 08:05:56 10° ESE 08:06:39 11° ESE 08:06:39 11° ESE
Magion 5 Rocket2 4.3 08:01:32 10° WNW 08:08:26 65° SW 08:13:13 10° SE
Cosmos 1238 Rocket 2.8 08:07:11 10° NNE 08:10:31 46° E 08:14:19 10° SSE
SPOT 5 4.1 08:07:42 10° SE 08:11:27 22° E 08:14:03 15° NE
Resurs 1-3 3.7 08:07:09 10° SSE 08:11:34 82° WSW 08:15:55 10° NNW
Lacrosse 5 rocket 1.2 08:08:06 10° WNW 08:11:52 73° SSW 08:15:28 11° ESE
Cosmos 1271 Rocket 2.7 08:09:09 10° N 08:12:30 44° E 08:15:55 10° SSE
Cosmos 2322 Rocket 3.8 08:09:11 10° SSW 08:13:39 22° SSE 08:17:42 11° ESE
SAR-Lupe-1 4.0 08:11:11 10° SSE 08:14:52 87° ENE 08:18:29 10° NNW
USA 215 3.4 08:12:46 13° E 08:18:39 71° SSE 08:25:12 10° WSW
Cosmos 1975 4.0 08:15:29 10° SSW 08:19:04 41° W 08:22:36 10° NNW
Cosmos 2369 4.0 08:18:32 10° SSW 08:24:14 56° SE 08:28:14 20° ENE
Meteor 2-4 Rocket 3.8 08:20:19 10° N 08:25:38 52° E 08:31:07 10° SSE
Cosmos 2360 Rocket 3.7 08:21:11 10° SSW 08:25:42 23° SSE 08:29:17 13° ESE
Cosmos 44 4.0 08:24:50 10° WNW 08:29:18 49° SW 08:33:34 10° SE
ATLAS 3B R/B 2.7 08:23:07 10° SW 08:29:18 62° SE 08:33:44 21° ENE
ARIANE 6 FM1 Upper Stage 4.5 08:27:53 10° SW 08:31:46 27° S 08:35:26 11° ESE
SAR-Lupe-4 4.2 08:28:36 10° S 08:32:13 59° WSW 08:35:46 10° NNW
Cosmos 1302 Rocket 3.9 08:27:42 10° NNW 08:32:56 78° ENE 08:38:17 10° SSE
CSL-04 Rocket 4.4 08:30:17 10° SSE 08:35:02 31° E 08:37:37 21° NE
Cosmos 1452 Rocket 3.9 08:31:13 10° NW 08:36:28 67° WSW 08:41:48 10° SSE
Cosmos 1486 Rocket 4.3 08:36:12 10° SSW 08:41:30 53° ESE 08:44:19 26° ENE
ATLAS 5 CENTAUR R/B 2.1 08:35:43 10° SW 08:42:01 79° SE 08:44:59 27° ENE
Cosmos 1805 Rocket 4.2 08:38:33 10° S 08:42:43 38° ESE 08:44:07 30° ENE
Cosmos 2221 4.5 08:42:50 10° NW 08:46:36 31° WSW 08:50:27 10° S
Cosmos 1758 3.9 08:44:10 10° S 08:47:34 32° ESE 08:47:54 32° E
IRIDIUM 114 4.4 08:43:03 10° S 08:48:21 62° E 08:51:55 21° NNE
Radarsat Rocket 3.9 08:45:27 10° SSE 08:51:28 87° ENE 08:57:22 10° NNW
Sich 1 2.9 08:49:39 10° S 08:53:55 72° ESE 08:55:51 31° NNE
Cosmos 1818 3.8 08:49:26 10° SW 08:54:48 63° NW 08:58:04 24° NNE
Meteor 1-27 Rocket 4.0 08:51:34 10° NNW 08:57:26 73° WSW 09:03:13 10° S
Meteor 1-18 Rocket 4.3 08:52:04 11° N 08:57:27 55° E 09:03:06 10° SSE
IRIDIUM 103 4.3 08:52:12 10° S 08:57:33 72° E 09:01:03 22° NNE
Cosmos 1553 Rocket 4.3 08:51:31 10° NNW 08:57:58 75° WSW 09:04:31 10° S
Cosmos 1953 4.4 08:58:58 10° SSE 09:00:17 13° SE 09:00:17 13° SE
USA 81 4.0 08:57:05 10° S 09:02:30 86° E 09:06:15 20° N
Terra 3.1 09:00:21 10° SE 09:03:24 24° ESE 09:03:24 24° ESE
Cosmos 1709 Rocket 3.9 08:58:38 10° S 09:04:57 80° E 09:09:16 22° NNE
Timation 1 Rocket 4.2 09:01:49 10° NNW 09:07:49 82° ENE 09:13:53 10° SE
Meteor 2-10 Rocket 3.8 09:07:38 10° SSW 09:13:16 77° W 09:17:11 21° N
Cosmos 2278 4.1 09:08:34 10° SSW 09:14:09 49° SE 09:16:03 36° E
Resurs 01 Rocket 2.7 09:10:28 10° S 09:14:47 47° WSW 09:19:03 10° NW
IRIDIUM 106 4.4 09:10:31 10° S 09:15:52 84° W 09:19:17 23° N
Cosmos 1833 Rocket 3.7 09:11:03 10° WNW 09:16:33 48° SW 09:22:05 10° SSE
Meteor 1-31 Rocket 2.6 09:14:24 10° SSE 09:17:33 61° SE 09:17:33 61° SE
ATLAS 2AS CENTAUR R/B 2.7 09:11:25 10° NNW 09:18:30 67° NE 09:25:48 10° SE
Okean 3 Rocket 3.9 09:14:42 10° SSW 09:19:16 67° W 09:21:36 28° N
Cosmos 839 Rocket 4.4 09:13:35 10° N 09:19:57 40° ENE 09:25:41 10° SE
Cosmos 1745 Rocket 4.3 09:14:22 10° SSW 09:20:33 66° W 09:25:54 14° N
Cosmos 2219 Rocket 3.4 09:16:34 10° SSW 09:21:37 30° SE 09:23:32 25° ESE
USA 229 DEB 3.6 09:17:15 10° SW 09:23:57 68° NW 09:26:30 36° NNE
USA 229 3.6 09:17:19 10° SW 09:24:01 69° NW 09:26:33 36° NNE
Cosmos 1992 Rocket 4.2 09:21:39 10° NNW 09:26:52 72° WSW 09:32:09 10° SSE
Cosmos 2333 Rocket 2.4 09:22:39 10° SSW 09:28:28 60° SE 09:30:04 44° ENE
SJ-6B 4.1 09:27:02 10° S 09:30:18 36° WSW 09:33:32 10° NW
Cosmos 2154 Rocket 4.4 09:25:59 10° S 09:32:02 44° ESE 09:33:16 39° E
Cosmos 2315 Rocket 3.9 09:27:15 19° N 09:32:04 80° E 09:38:29 10° SSE
Cosmos 2082 Rocket 2.1 09:28:56 10° NNW 09:34:34 71° ENE 09:40:15 10° SE
Cosmos 1354 Rocket 4.0 09:29:53 10° SSW 09:35:09 65° ESE 09:36:05 55° ENE
Helios 1A 2.8 09:34:49 73° NNW 09:35:10 82° WNW 09:39:15 10° SSW
Feng Yun 1-1 Rocket 4.4 09:30:10 10° SSE 09:35:53 58° ENE 09:37:18 46° NNE
IRAS Rocket 4.2 09:33:20 10° SSE 09:39:02 89° WSW 09:44:02 14° NNW
SL-14 R/B 3.3 09:40:33 70° SSE 09:40:33 70° SSE 09:44:05 10° SSE
Cosmos 1980 Rocket 3.7 09:36:47 10° SW 09:41:42 31° WNW 09:45:17 16° NNW
Cosmos 1777 Rocket 4.1 09:36:38 10° SSW 09:41:54 72° WNW 09:43:14 49° N
CZ-4 R/B 1.3 09:38:12 10° SSE 09:41:37 70° S 09:41:37 70° S
SL-16 R/B 2.1 09:42:21 10° SSW 09:48:08 87° ESE 09:49:15 60° NE
Cosmos 1151 Rocket 2.9 09:48:35 88° WSW 09:48:35 88° WSW 09:53:00 10° S
Lacrosse 5 rocket 1.9 09:45:20 10° WSW 09:48:48 45° S 09:48:48 45° S
S3M 4.3 09:43:31 10° NNW 09:49:42 66° WSW 09:55:54 10° S
SPOT 5 3.2 09:45:00 10° S 09:49:48 67° WSW 09:53:05 21° NNW
Cosmos 1408 Rocket 4.2 09:46:49 10° SSW 09:51:04 50° W 09:51:56 43° NW
PAYLOAD B 4.1 09:47:58 10° SSE 09:53:41 73° ENE 09:54:42 58° NNE
CSL-04 Debris 4.2 09:48:14 10° SSE 09:53:48 80° WSW 09:56:45 29° NNW
Cosmos 2184 Rocket 3.9 09:51:43 10° S 09:57:58 68° ESE 09:58:56 59° ENE
Cosmos 2322 Rocket 2.2 09:53:00 10° SSW 09:58:47 67° SE 09:59:28 61° E
MetOp-B 4.0 09:56:07 10° SSE 10:01:34 71° ENE 10:01:40 71° ENE
USA 215 3.3 10:00:07 52° NNE 10:01:43 70° NNW 10:08:20 10° WSW
Cosmos 1503 Rocket 4.2 09:57:20 10° SSW 10:02:30 61° WNW 10:03:13 55° NNW
ADEOS 3.5 09:57:16 10° SSE 10:02:25 70° E 10:02:25 70° E
Cosmos 2237 Rocket 4.3 09:59:51 10° SSW 10:03:40 18° SSE 10:06:28 13° ESE
Aureole 1 Rocket 4.4 09:57:08 10° SSW 10:04:23 70° ESE 10:06:09 53° ENE
Gblst 52 Del rocket 4.0 10:01:28 10° WNW 10:06:56 73° N 10:06:56 73° N
IRS-1A Rocket 4.4 10:02:42 10° SSE 10:08:23 60° E 10:08:23 60° E
Cosmos 1340 Rocket 4.1 10:06:44 10° S 10:09:08 34° S 10:09:08 34° S
Cosmos 2360 Rocket 2.1 10:04:57 10° SSW 10:10:42 72° ESE 10:11:01 70° E
Cosmos 1743 Rocket 4.1 10:06:28 10° SSW 10:10:46 54° W 10:10:46 54° W
ERS-1 Rocket 2.9 10:05:41 10° SSE 10:10:49 89° WSW 10:10:56 86° NW
ARIANE 6 FM1 Upper Stage 3.6 10:07:16 10° SW 10:11:24 47° SSE 10:11:24 47° SSE
CZ-4B R/B 3.0 10:07:44 10° SSE 10:13:18 83° ENE 10:13:28 81° NE
Cosmos 1666 Rocket 4.0 10:09:09 10° S 10:12:56 61° S 10:12:56 61° S
CSL-04 Rocket 4.3 10:10:24 10° S 10:15:38 52° WSW 10:19:11 20° NW
CZ-4B DEB 4.4 10:10:32 10° SSE 10:16:08 72° WSW 10:17:53 44° NW
Okean O Rocket 3.0 10:13:56 10° SSE 10:16:18 30° SSE 10:16:18 30° SSE
ATLAS 3B R/B 3.2 10:13:55 10° SW 10:19:49 43° WNW 10:20:58 40° NNW
Spot 2 Rocket 4.1 10:16:57 10° SSE 10:20:43 45° SE 10:20:43 45° SE
ATLAS 5 CENTAUR R/B 3.4 10:18:54 10° WSW 10:23:45 27° WNW 10:24:12 27° NW
Meteor 1-22 Rocket 4.4 10:24:06 10° SSW 10:29:54 66° W 10:30:20 64° NW
CZ-2C R/B 4.3 10:32:06 52° SSW 10:32:06 52° SSW 10:35:32 10° SSW
Cosmos 1898 Rocket 3.8 10:28:15 10° SSW 10:32:59 62° SSE 10:32:59 62° SSE
CZ-4C R/B 3.6 10:38:52 37° ESE 10:38:52 37° ESE 10:43:08 10° SE
Cosmos 1953 4.1 10:32:40 10° SSW 10:34:34 28° SSW 10:34:34 28° SSW
Meteor 1-16 Rocket 4.3 10:32:10 10° S 10:36:51 62° SSE 10:36:51 62° SSE
Terra 2.4 10:37:29 10° S 10:42:01 53° WSW 10:42:01 53° WSW
Cosmos 1633 Rocket 4.2 10:37:57 10° SSW 10:41:04 43° SW 10:41:04 43° SW
COSMOS 2406 3.2 10:42:49 78° SW 10:42:49 78° SW 10:48:33 10° SSE
MOS 1-B 4.4 10:38:32 10° SSE 10:43:54 73° SE 10:43:54 73° SE
ACS3 Solar Sail 4.0 10:46:51 12° ESE 10:48:45 13° SE 10:51:30 10° SSE
Okean-O 4.0 10:50:20 10° S 10:53:06 37° S 10:53:06 37° S
NOSS 3-4 (A) 4.0 10:50:25 10° SW 10:58:13 60° SSE 10:59:23 53° ESE
NOSS 3-4 (C) 4.0 10:50:49 10° SW 10:58:34 59° SSE 10:59:45 53° ESE
Cosmos 2219 Rocket 2.5 11:00:23 10° SW 11:05:13 62° SW 11:05:13 62° SW
ATLAS 2AS CENTAUR R/B 3.5 11:02:43 10° WNW 11:09:48 53° SSW 11:17:03 10° SE
Cosmos 2322 4.3 11:05:16 10° SSW 11:10:08 52° SSE 11:10:08 52° SSE
Cosmos 1763 Rocket 4.3 11:12:35 50° SSW 11:12:35 50° SSW 11:17:02 10° SSE
Cosmos 2333 Rocket 3.5 11:07:22 10° SW 11:12:04 32° W 11:12:04 32° W
Cosmos 2218 Rocket 4.2 11:07:31 10° S 11:13:24 65° SE 11:13:24 65° SE
Cosmos 2341 Rocket 4.1 11:08:04 10° S 11:13:56 71° SSE 11:13:56 71° SSE
CZ-4 R/B 4.3 11:13:58 10° SSW 11:15:24 12° SW 11:16:35 11° WSW
COSMOS 2428 3.3 11:10:22 10° SSW 11:15:13 51° SSE 11:15:13 51° SSE
Cosmos 2082 Rocket 3.8 11:14:04 10° WNW 11:19:08 32° SW 11:24:14 10° SSE
Nadezhda 1 Rocket 4.1 11:21:39 67° SW 11:21:39 67° SW 11:27:23 10° S
Cosmos 2366 rocket 4.2 11:22:17 10° S 11:27:57 71° S 11:27:57 71° S
SL-16 R/B 4.1 11:27:24 10° SW 11:31:05 20° W 11:31:05 20° W
SL-8 Rocket 4.3 11:31:50 10° SSW 11:37:18 65° SW 11:37:18 65° SW
IDEFIX/ARIANE 42P 4.4 11:39:47 24° SE 11:39:47 24° SE 11:43:19 10° S
Cosmos 2322 Rocket 3.8 11:37:35 10° SW 11:41:15 26° W 11:41:15 26° W
Magion-5 4.4 11:40:53 10° SW 11:45:06 66° W 11:45:06 66° W
CZ-2C R/B 4.1 11:48:03 46° SSW 11:48:03 46° SSW 11:51:59 10° SSW
Cosmos 2237 Rocket 3.2 11:43:42 10° SSW 11:48:14 42° SSE 11:48:14 42° SSE
Ariane Rocket 4.2 11:44:50 10° S 11:48:15 40° S 11:48:15 40° S
Okean O Rocket 3.9 11:50:48 10° S 11:53:32 21° SW 11:53:32 21° SW
Cosmos 2360 Rocket 4.0 11:49:36 10° SW 11:52:44 23° W 11:52:44 23° W
